[[{"header":{"parameterUnit":"m.s-1","parameterCategory":1,"la1":30.2991,"la2":30.254,"lo1":-89.0895,"lo2":-89.0444,"dy":0.0017,"dx":0.0017,"nx":28,"ny":28,"refTime":"2024-08-01T21:00:00:Z","depth":0,"parameterNumber":2,"parameterNumberName":"U-component_of_WINDS"},"data":[0,0,0,0,0,0,0,0,0,0,0,0,0,0,0,0,0,0,0,0,0,0,0,0,0,0,0,0,0,0,0,0,0,0,0,0,0,0,0,0,0,0,0,0,0,0,0,0,0,0,0,0,0,0,0,0,0,0,3.3644,3.3645,0,3.3721,3.3722,3.3722,3.3687,3.3685,3.3684,3.3682,3.3766,3.377,3.3774,0,0,0,0,0,0,0,0,0,0,0,0,0,3.3475,3.3478,3.3644,3.3645,3.3646,3.3721,3.3722,3.3723,3.3688,3.3685,3.3683,3.3681,3.3764,3.3769,3.3774,0,0,0,0,0,0,0,0,0,0,0,0,0,3.355,3.348,3.3644,3.3637,3.3638,3.372,3.3722,3.3723,3.3688,3.3685,3.3682,3.368,3.3763,3.3769,3.3775,3.387,0,0,3.3793,3.3796,0,0,0,0,0,0,0,0,3.3546,3.3556,3.3637,3.3638,3.3638,3.3691,3.3693,3.3772,3.3689,3.3669,3.3682,3.3678,3.3744,3.3751,3.3772,3.3874,3.3877,3.3794,3.3797,3.38,3.3802,0,0,0,0,0,0,0,3.3541,3.3553,3.3674,3.3639,3.3639,3.3633,3.3641,3.3708,3.3722,3.3671,3.3668,3.3678,3.3743,3.3766,3.3774,3.3879,3.3793,3.3799,3.3803,3.3805,3.4067,3.407,0,0,0,0,0,0,3.3535,3.3549,3.3672,3.3677,3.3584,3.3639,3.3647,3.3677,3.3721,3.3725,3.368,3.3676,3.3757,3.3767,3.3777,3.3894,3.38,3.3806,3.3809,3.4064,3.4068,3.4072,0,0,0,0,0,0,3.3531,3.3546,3.3669,3.3612,3.3627,3.3644,3.3679,3.368,3.3703,3.3728,3.3731,3.37,3.3755,3.3768,3.3848,3.3896,3.3808,3.3814,3.406,3.4065,3.407,3.4128,0,0,0,0,0,0,3.3526,3.3545,3.3579,3.3613,3.363,3.3737,3.3682,3.3684,3.3713,3.3708,3.3748,3.3752,3.3754,3.3839,3.3854,3.3903,3.3818,3.4056,3.4062,3.4068,3.4121,3.4134,3.4145,0,0,0,0,0,3.3521,3.3593,3.3581,3.3596,3.3673,3.3739,3.3749,3.3749,3.3717,3.3753,3.377,3.375,3.3888,3.3847,3.3864,3.3916,3.4053,3.406,3.4068,3.4116,3.4131,3.4144,0,0,0,0,0,0,3.3565,3.3597,3.3584,3.3669,3.3702,3.3733,3.3779,3.3765,3.3808,3.3802,3.3802,3.3811,3.3894,3.3913,3.3866,3.4012,3.3966,3.3977,3.3997,3.4012,3.4023,3.4018,3.3824,0,0,0,0,0,3.3585,3.3633,3.3659,3.3732,3.3749,3.3761,3.379,3.3787,3.3821,3.3835,3.3857,3.3894,3.3945,3.3979,3.4028,3.4124,3.4134,3.4168,3.418,3.4189,3.4199,3.4255,3.4272,3.4096,3.4096,3.4096,0,0,3.3626,3.3649,3.368,3.3742,3.3766,3.382,3.3773,3.383,3.3871,3.3845,3.3921,3.3939,3.398,3.4069,3.4109,3.4087,3.425,3.4199,3.4206,3.4211,3.4265,3.4281,3.4296,3.4101,3.41,3.41,0,0,3.3729,3.375,3.3814,3.384,3.3878,3.3887,3.3902,3.3937,3.3947,3.4024,3.4007,3.4056,3.4144,3.4175,3.4202,3.432,3.4305,3.4336,3.4397,3.4452,3.4465,3.4478,3.4523,3.4539,3.4345,3.4346,3.4346,0,3.3776,3.3853,3.3849,3.3909,3.3939,3.3916,3.3984,3.401,3.4063,3.4085,3.4058,3.4171,3.4196,3.4294,3.4323,3.4344,3.4365,3.4332,3.4463,3.4476,3.4487,3.453,3.4547,3.4349,3.4349,3.4349,3.4348,0,3.3911,3.3965,3.4013,3.4064,3.4098,3.4162,3.4171,3.4207,3.4202,3.4214,3.4295,3.4324,3.4381,3.4403,3.4399,3.4502,3.4487,3.4462,3.4416,3.4508,3.4548,3.4565,3.4355,3.4353,3.4352,3.4351,0,0,3.4043,3.4093,3.4111,3.4135,3.4177,3.422,3.4284,3.4338,3.437,3.4408,3.4464,3.4541,3.4519,3.455,3.4549,3.4597,3.4693,3.4566,3.4567,3.4591,3.4812,3.4832,3.4851,3.4682,3.4686,3.4688,3.481,0,3.4151,3.4261,3.4261,3.4364,3.4417,3.4398,3.4454,3.4488,3.4502,3.455,3.4566,3.4621,3.4586,3.4606,3.4652,3.4671,3.4737,3.4662,3.4738,3.4741,3.473,3.4872,3.4892,3.5005,3.4825,3.4828,3.483,0,3.4291,3.4333,3.4441,3.4479,3.4501,3.4551,3.4602,3.4648,3.4687,3.4694,3.473,3.4723,3.4792,3.4742,3.4839,3.4788,3.482,3.4834,3.4839,3.4847,3.4792,3.4887,3.5041,3.5059,3.4854,3.4852,3.485,0,3.438,3.4464,3.4541,3.4562,3.4607,3.4643,3.4664,3.47,3.4733,3.4779,3.4801,3.4855,3.4885,3.4927,3.4936,3.4899,3.5035,3.4985,3.5045,3.5046,3.5076,3.5074,3.524,3.5092,3.5092,3.5092,3.5092,0,3.4502,3.457,3.4582,3.4629,3.4706,3.4707,3.4783,3.4802,3.4834,3.4887,3.4874,3.4925,3.4932,3.4985,3.4993,3.5074,3.5087,3.5097,3.5099,3.5099,3.5099,3.5121,3.5114,3.5096,3.5095,3.5095,3.5094,0,3.4615,3.4625,3.4708,3.4744,3.4755,3.481,3.4842,3.4889,3.4902,3.4969,3.4985,3.5006,3.5069,3.5081,3.5155,3.516,3.5258,3.5251,3.5244,3.5244,3.5305,3.53,3.5493,3.5519,3.5352,3.5354,3.5355,0,3.4693,3.4745,3.4787,3.482,3.4843,3.4897,3.4932,3.4936,3.4973,3.5023,3.5065,3.5125,3.5174,3.5275,3.5299,3.5356,3.5351,3.5415,3.536,3.536,3.5356,3.5354,3.536,3.5426,3.5428,3.5429,3.5431,0,3.4831,3.4835,3.4883,3.4936,3.4977,3.5018,3.5058,3.5087,3.5097,3.514,3.5202,3.524,3.5316,3.5378,3.5436,3.546,3.5449,3.5448,3.5465,3.5467,3.5463,3.5469,3.5276,3.5444,3.5442,3.5441,3.5441,3.544,3.4931,3.4978,3.5015,3.5071,3.5101,3.5139,3.5186,3.5205,3.5257,3.5318,3.5318,3.5388,3.543,3.5506,3.5534,3.5591,3.5571,3.5595,3.5602,3.5609,3.5616,3.5452,3.5601,3.5601,3.56,3.56,3.56,0,3.5071,3.5095,3.5146,3.5202,3.5248,3.5231,3.5275,3.5315,3.5376,3.5414,3.5463,3.5537,3.5598,3.5627,3.5687,3.5727,3.5724,3.5743,3.5741,3.5748,3.5628,3.5608,3.5745,3.5745,3.5745,3.5745,3.5745,3.5745,3.515,3.5228,3.5237,3.5332,3.5355,3.5423,3.545,3.5486,3.5517,3.56,3.565,3.5668,3.5704,3.5768,3.5824,3.5831,3.5855,3.5878,3.5883,3.5771,3.5756,3.5742,3.5723,3.5882,3.5882,3.5998,3.5999,3.6]},{"header":{"parameterUnit":"m.s-1","parameterCategory":1,"la1":30.2991,"la2":30.254,"lo1":-89.0895,"lo2":-89.0444,"dy":0.0017,"dx":0.0017,"nx":28,"ny":28,"refTime":"2024-08-01T21:00:00:Z","depth":0,"parameterNumber":3,"parameterNumberName":"V-component_of_WINDS"},"data":[0,0,0,0,0,0,0,0,0,0,0,0,0,0,0,0,0,0,0,0,0,0,0,0,0,0,0,0,0,0,0,0,0,0,0,0,0,0,0,0,0,0,0,0,0,0,0,0,0,0,0,0,0,0,0,0,0,0,1.7118,1.7119,0,1.7245,1.7247,1.7248,1.7281,1.7281,1.728,1.7279,1.7407,1.7411,1.7415,0,0,0,0,0,0,0,0,0,0,0,0,0,1.6899,1.6903,1.7118,1.7119,1.7121,1.7245,1.7247,1.7248,1.7282,1.7281,1.728,1.7279,1.7406,1.7411,1.7416,0,0,0,0,0,0,0,0,0,0,0,0,0,1.7007,1.6905,1.7118,1.7153,1.7157,1.7245,1.7247,1.7249,1.7282,1.7281,1.7279,1.7278,1.7404,1.741,1.7417,1.7478,0,0,1.7435,1.7438,0,0,0,0,0,0,0,0,1.7001,1.7015,1.7146,1.715,1.7155,1.7246,1.7217,1.7326,1.7282,1.7234,1.7279,1.7278,1.7355,1.7365,1.7391,1.7484,1.7489,1.7436,1.744,1.7442,1.7444,0,0,0,0,0,0,0,1.6994,1.701,1.7168,1.7148,1.7154,1.7161,1.7175,1.7238,1.7299,1.7238,1.7241,1.7256,1.7357,1.7385,1.7394,1.7491,1.7436,1.7441,1.7445,1.7448,1.7637,1.7638,0,0,0,0,0,0,1.698,1.7003,1.7164,1.7172,1.7074,1.7165,1.7181,1.7218,1.7299,1.731,1.7257,1.7257,1.7375,1.7387,1.7399,1.7474,1.7442,1.7448,1.7452,1.7635,1.7637,1.7638,0,0,0,0,0,0,1.6976,1.6995,1.7159,1.7089,1.711,1.717,1.7212,1.7221,1.725,1.7313,1.7323,1.7274,1.7375,1.739,1.7457,1.7479,1.7451,1.7457,1.7634,1.7636,1.7638,1.7625,0,0,0,0,0,0,1.6969,1.6993,1.7018,1.7089,1.7114,1.7217,1.7213,1.7225,1.726,1.7262,1.7332,1.7343,1.7375,1.7448,1.7463,1.7487,1.7461,1.7632,1.7635,1.7637,1.7624,1.7627,1.7629,0,0,0,0,0,1.6961,1.701,1.7019,1.7038,1.7147,1.7218,1.7232,1.7269,1.7262,1.7287,1.7327,1.734,1.7474,1.7454,1.7472,1.7498,1.7631,1.7634,1.7637,1.7623,1.7626,1.7629,0,0,0,0,0,0,1.694,1.702,1.7031,1.7104,1.7154,1.7223,1.7256,1.7271,1.7324,1.7323,1.7366,1.7381,1.7445,1.7478,1.7455,1.756,1.7552,1.7559,1.7536,1.7539,1.7542,1.7532,1.7467,0,0,0,0,0,1.6943,1.6995,1.7062,1.712,1.7144,1.7196,1.7228,1.7252,1.7305,1.7326,1.7371,1.7422,1.7475,1.7509,1.7561,1.7629,1.7643,1.7655,1.7657,1.7659,1.7664,1.7699,1.7704,1.7648,1.7648,1.7648,0,0,1.6951,1.7001,1.7032,1.7117,1.7158,1.721,1.7213,1.7269,1.7306,1.7335,1.74,1.7435,1.7493,1.756,1.7592,1.759,1.7682,1.7663,1.7663,1.7668,1.7703,1.7708,1.7713,1.765,1.765,1.7649,0,0,1.6992,1.7036,1.7088,1.7129,1.7192,1.7225,1.7237,1.7304,1.7328,1.7394,1.7416,1.7461,1.7552,1.7592,1.7624,1.7677,1.769,1.7692,1.7705,1.7738,1.7743,1.7747,1.7764,1.7769,1.7697,1.7697,1.7697,0,1.6994,1.7074,1.7113,1.7166,1.7201,1.7229,1.728,1.7318,1.7394,1.7417,1.7414,1.7527,1.7568,1.7643,1.7656,1.7682,1.7695,1.7685,1.7739,1.7744,1.7748,1.7765,1.7771,1.7697,1.7697,1.7697,1.7697,0,1.7072,1.7127,1.7161,1.7233,1.7273,1.7325,1.7369,1.7404,1.7423,1.7456,1.7522,1.7572,1.7634,1.7654,1.7674,1.7731,1.7727,1.7731,1.7725,1.7753,1.7769,1.7775,1.7697,1.7697,1.7697,1.7697,0,0,1.7105,1.7196,1.7208,1.724,1.7309,1.7352,1.7403,1.7464,1.7492,1.7543,1.7586,1.7661,1.7664,1.77,1.7724,1.7754,1.7789,1.7754,1.7756,1.7758,1.7852,1.7848,1.7855,1.7798,1.78,1.7801,1.7847,0,1.7153,1.7248,1.7283,1.736,1.7409,1.7434,1.7479,1.7525,1.7557,1.7602,1.7636,1.7688,1.7689,1.7711,1.7741,1.7779,1.7809,1.7776,1.7837,1.7839,1.7821,1.7864,1.7861,1.7902,1.7853,1.7855,1.7855,0,1.7224,1.7274,1.7356,1.7417,1.7439,1.7479,1.7536,1.7579,1.7631,1.7651,1.769,1.7712,1.7765,1.7754,1.7827,1.7803,1.783,1.7852,1.7854,1.7861,1.7849,1.787,1.7916,1.7921,1.7866,1.7865,1.7864,0,1.7237,1.7326,1.7386,1.7412,1.7485,1.7512,1.7544,1.7594,1.7627,1.7676,1.7698,1.7752,1.7782,1.7822,1.7857,1.7847,1.7924,1.7918,1.7941,1.794,1.7957,1.7955,1.8006,1.7975,1.7975,1.7975,1.7975,0,1.7287,1.7336,1.7392,1.7429,1.7483,1.7521,1.7574,1.7606,1.7651,1.7693,1.7717,1.7756,1.78,1.7843,1.7871,1.7925,1.7938,1.7955,1.7961,1.7952,1.795,1.797,1.7968,1.7977,1.7976,1.7976,1.7976,0,1.7311,1.7351,1.7418,1.7481,1.7497,1.7534,1.7587,1.7623,1.7654,1.7707,1.7721,1.777,1.7822,1.7861,1.7929,1.7947,1.8004,1.8011,1.7986,1.799,1.801,1.8007,1.8075,1.8085,1.8048,1.8049,1.8049,0,1.734,1.7378,1.7444,1.7474,1.7506,1.7554,1.7587,1.7625,1.7659,1.7719,1.7746,1.78,1.7846,1.7927,1.7968,1.8019,1.8027,1.8047,1.8035,1.8023,1.8025,1.8022,1.8025,1.8049,1.8049,1.8049,1.8049,0,1.7387,1.7404,1.7452,1.7506,1.7545,1.759,1.7635,1.7657,1.7703,1.7739,1.7792,1.7827,1.7895,1.7948,1.8002,1.8033,1.8048,1.8052,1.806,1.8051,1.8035,1.8042,1.799,1.8051,1.8051,1.8051,1.8051,1.805,1.7414,1.7448,1.7499,1.755,1.7588,1.7628,1.7664,1.7699,1.7745,1.7803,1.7822,1.7877,1.7925,1.8,1.803,1.8072,1.8072,1.8084,1.8087,1.8089,1.8087,1.8028,1.8083,1.8083,1.8083,1.8083,1.8083,0,1.746,1.7494,1.7541,1.7602,1.7642,1.7653,1.7702,1.7734,1.7782,1.7826,1.7869,1.7929,1.798,1.8023,1.8074,1.81,1.8107,1.8112,1.811,1.8116,1.8086,1.8073,1.8104,1.8104,1.8104,1.8104,1.8104,1.8104,1.7489,1.7546,1.7569,1.7644,1.7677,1.7731,1.7758,1.7794,1.7829,1.7895,1.7937,1.7965,1.8008,1.8062,1.8107,1.8119,1.8136,1.8138,1.8151,1.8121,1.8119,1.8116,1.8104,1.8142,1.8142,1.8178,1.8178,1.8178]}]]